SCP
0 0 0 0 0 0 0 0 0 0 0 0 0 0 0 0 0 0 0 0 0 0 0 0 0 0 0
0 0 0 0 0 0 0 0 0 0 0 0 0 0 0 0 0 0 0 0 0 0 0 0 0 0 0
0 0 0 0 0 0 0 0 0 0 0 0 0 0 0 0 0 0 0 0 0 0 0 0 0 0 0
0 0 0 0 0 0 0 0 0 0 0 0 0 0 0 0 0 0 0 0 0 0 0 0 0 0 0
0 0 0 0 0 0 0 0 0 0 0 0 0 0 0 0 0 0 0 0 0 0 0 0 0 0 0
0 0 0 0 0 0 0 0 0 0 0 0 0 0 1 0 0 0 0 0 0 0 0 0 0 0 0
0 0 0 0 0 0 0 0 0 0 0 0 0 0 0 0 0 0 0 0 0 0 0 0 0 0 0
0 0 0 0 0 0 0 0 0 0 0 0 0 0 0 0 0 0 0 0 0 0 0 0 0 0 0
0 0 0 0 0 0 0 0 0 0 0 0 0 0 0 0 0 0 0 0 0 0 0 0 0 0 0
0 0 0 0 0 0 0 0 0 0 0 0 0 0 0 0 0 0 0 0 0 0 0 0 0 0 0
0 0 0 0 0 0 0 0 0 0 0 0 0 0 0 0 0 0 0 0 0 0 0 0 0 0 0
0 0 0 0 0 0 0 -0 -0 0 0 0 0 0 0 0 0 0 0 0 0 0 0 0 0 0 0
0 0 0 0 0 0 -0 -0 0 0 0 0 0 0 0 0 0 0 0 0 0 0 0 0 0 0 0
0 0 0 0 0 -0 -0 -0 0 0 0 0 0 0 0 0 0 0 0 0 0 0 0 0 0 0 0
0 0 0 0 0 0 -0 -0 0 0 0 0 0 0 0 0 0 0 0 0 0 0 0 0 0 0 0
0 0 0 0 0 -0 -0 -0 0 0 0 0 0 0 0 0 0 0 0 0 0 0 0 0 0 0 0
Wind_Speed_500mb
34 33 34 34 34 34 34 35 37 38 38 35 43 42 44 50 45 48 35 46 36 36 27 35 41 36 26
35 35 33 34 35 35 35 35 33 35 43 35 34 43 46 48 41 40 60 33 44 38 34 36 37 38 26
36 39 40 40 37 37 36 36 34 35 36 36 31 32 43 35 38 25 35 56 51 53 47 37 31 32 25
37 40 44 45 43 39 37 34 35 33 31 39 34 30 36 46 38 34 10 8 45 58 50 36 31 31 27
39 42 44 47 44 42 38 35 33 33 29 28 28 29 27 40 43 34 26 26 38 58 54 43 31 29 27
43 40 45 49 48 42 38 35 34 32 28 24 36 21 22 28 50 47 56 40 69 65 55 40 33 27 21
40 43 48 49 46 42 37 33 30 30 28 28 25 35 21 19 42 45 37 52 35 55 50 42 32 29 29
40 43 49 50 45 40 35 30 27 26 21 23 23 24 19 25 32 41 49 63 51 58 59 48 38 32 33
37 44 48 43 40 36 31 28 30 21 19 19 22 23 29 17 29 63 53 52 52 59 57 54 45 29 29
37 44 43 37 36 32 24 22 25 16 22 15 26 26 21 30 20 25 60 61 69 68 64 53 46 33 28
38 40 38 32 29 21 21 19 20 14 18 12 19 30 23 20 26 26 36 55 52 50 58 58 44 37 36
37 34 27 21 17 18 13 17 10 10 17 14 13 24 29 22 21 30 47 45 45 46 48 49 47 34 33
32 28 26 17 16 12 13 13 12 12 15 13 17 16 25 25 19 32 29 62 53 54 67 57 47 41 38
28 25 26 19 10 8 8 6 11 11 13 14 16 15 21 27 28 26 42 69 67 71 76 66 43 42 40
24 22 19 13 9 8 8 6 9 13 13 13 13 19 18 32 16 23 51 66 78 81 75 46 33 15 42
20 17 14 10 2 4 5 6 6 11 17 17 14 17 26 31 29 17 35 56 62 72 71 36 29 48 27
Wind_Direction_500mb
319 315 310 305 301 297 292 286 275 265 266 262 252 244 240 242 249 247 251 153 169 181 184 176 174 168 174
315 313 310 306 303 299 293 289 284 270 261 263 257 254 247 239 242 245 222 190 184 171 182 182 182 181 180
316 321 321 316 306 300 297 290 284 271 265 256 262 259 252 238 226 245 226 185 174 171 173 181 187 169 168
315 319 319 316 311 302 294 287 282 278 271 263 255 267 245 234 224 247 226 220 171 169 156 165 158 161 164
307 314 318 319 313 308 299 286 277 273 268 264 256 261 263 234 226 245 227 235 206 159 154 162 170 162 172
302 311 316 317 311 307 297 289 277 267 260 260 242 249 260 243 231 237 248 259 199 163 161 163 171 160 150
300 307 312 312 309 304 302 291 277 264 259 249 252 241 257 237 219 226 221 191 179 163 157 164 172 181 158
295 303 308 309 305 301 298 288 273 265 256 239 241 233 234 238 216 215 211 182 186 174 161 167 178 174 167
296 303 306 307 306 303 299 290 270 253 253 236 231 226 227 213 198 197 204 193 185 171 162 167 177 173 170
301 304 310 309 307 305 303 288 269 239 251 232 217 212 223 226 228 202 175 167 169 162 168 163 164 173 166
307 313 316 312 307 298 294 283 260 239 236 229 210 210 207 208 216 210 172 167 167 162 175 178 162 171 166
316 323 319 312 304 299 284 266 259 263 233 221 224 195 191 202 214 207 212 201 205 198 174 171 168 171 162
320 319 316 312 304 285 262 238 232 246 232 227 222 202 188 191 207 219 221 193 189 183 157 164 184 173 183
319 319 318 316 302 277 247 234 232 226 221 223 215 197 192 186 204 198 217 177 172 165 165 164 155 172 182
318 322 317 329 347 347 309 251 212 202 202 209 208 202 192 187 177 216 199 187 163 171 172 169 150 162 168
319 322 320 313 212 301 316 297 226 216 208 202 215 207 197 193 198 217 184 188 181 175 175 176 165 176 158
Wind_Speed_850mb
34 33 34 34 34 34 34 35 37 38 38 35 43 42 44 50 45 48 35 46 36 36 27 35 41 36 26
35 35 33 34 35 35 35 35 33 35 43 35 34 43 46 48 41 40 60 33 44 38 34 36 37 38 26
36 39 40 40 37 37 36 36 34 35 36 36 31 32 43 35 38 25 35 56 51 53 47 37 31 32 25
37 40 44 45 43 39 37 34 35 33 31 39 34 30 36 46 38 34 10 8 45 58 50 36 31 31 27
39 42 44 47 44 42 38 35 33 33 29 28 28 29 27 40 43 34 26 26 38 58 54 43 31 29 27
43 40 45 49 48 42 38 35 34 32 28 24 36 21 22 28 50 47 56 40 69 65 55 40 33 27 21
40 43 48 49 46 42 37 33 30 30 28 28 25 35 21 19 42 45 37 52 35 55 50 42 32 29 29
40 43 49 50 45 40 35 30 27 26 21 23 23 24 19 25 32 41 49 63 51 58 59 48 38 32 33
37 44 48 43 40 36 31 28 30 21 19 19 22 23 29 17 29 63 53 52 52 59 57 54 45 29 29
37 44 43 37 36 32 24 22 25 16 22 15 26 26 21 30 20 25 60 61 69 68 64 53 46 33 28
38 40 38 32 29 21 21 19 20 14 18 12 19 30 23 20 26 26 36 55 52 50 58 58 44 37 36
37 34 27 21 17 18 13 17 10 10 17 14 13 24 29 22 21 30 47 45 45 46 48 49 47 34 33
32 28 26 17 16 12 13 13 12 12 15 13 17 16 25 25 19 32 29 62 53 54 67 57 47 41 38
28 25 26 19 10 8 8 6 11 11 13 14 16 15 21 27 28 26 42 69 67 71 76 66 43 42 40
24 22 19 13 9 8 8 6 9 13 13 13 13 19 18 32 16 23 51 66 78 81 75 46 33 15 42
20 17 14 10 2 4 5 6 6 11 17 17 14 17 26 31 29 17 35 56 62 72 71 36 29 48 27
Wind_Direction_850mb
319 315 310 305 301 297 292 286 275 265 266 262 252 244 240 242 249 247 251 153 169 181 184 176 174 168 174
315 313 310 306 303 299 293 289 284 270 261 263 257 254 247 239 242 245 222 190 184 171 182 182 182 181 180
316 321 321 316 306 300 297 290 284 271 265 256 262 259 252 238 226 245 226 185 174 171 173 181 187 169 168
315 319 319 316 311 302 294 287 282 278 271 263 255 267 245 234 224 247 226 220 171 169 156 165 158 161 164
307 314 318 319 313 308 299 286 277 273 268 264 256 261 263 234 226 245 227 235 206 159 154 162 170 162 172
302 311 316 317 311 307 297 289 277 267 260 260 242 249 260 243 231 237 248 259 199 163 161 163 171 160 150
300 307 312 312 309 304 302 291 277 264 259 249 252 241 257 237 219 226 221 191 179 163 157 164 172 181 158
295 303 308 309 305 301 298 288 273 265 256 239 241 233 234 238 216 215 211 182 186 174 161 167 178 174 167
296 303 306 307 306 303 299 290 270 253 253 236 231 226 227 213 198 197 204 193 185 171 162 167 177 173 170
301 304 310 309 307 305 303 288 269 239 251 232 217 212 223 226 228 202 175 167 169 162 168 163 164 173 166
307 313 316 312 307 298 294 283 260 239 236 229 210 210 207 208 216 210 172 167 167 162 175 178 162 171 166
316 323 319 312 304 299 284 266 259 263 233 221 224 195 191 202 214 207 212 201 205 198 174 171 168 171 162
320 319 316 312 304 285 262 238 232 246 232 227 222 202 188 191 207 219 221 193 189 183 157 164 184 173 183
319 319 318 316 302 277 247 234 232 226 221 223 215 197 192 186 204 198 217 177 172 165 165 164 155 172 182
318 322 317 329 347 347 309 251 212 202 202 209 208 202 192 187 177 216 199 187 163 171 172 169 150 162 168
319 322 320 313 212 301 316 297 226 216 208 202 215 207 197 193 198 217 184 188 181 175 175 176 165 176 158